Location: Basses del Siscar
(42.5951°N, 1.7173°E)
Time: 01:58:33
(UTC+00:00)

Daily predictions for brighter satellites

Satellite Brightness Start Highest point End
(mag) Time Altitude Azimuth Time Altitude Azimuth Time Altitude Azimuth
Cosmos 2082 Rocket 3.5 03:49:31 36° E 03:49:31 36° E 03:54:23 10° NE
COSMOS 2455 4.1 03:58:09 33° NNE 03:58:56 34° NE 04:04:22 10° ESE
Cosmos 1980 Rocket 2.7 04:14:14 56° ESE 04:14:14 56° ESE 04:18:42 10° SSE
Cosmos 2279 Rocket 4.0 04:14:28 75° SE 04:14:28 75° SE 04:20:18 10° S
Cosmos 2098 Rocket 4.0 04:15:58 67° E 04:15:58 67° E 04:21:37 10° SSE
Tiangong 1.1 04:27:21 14° ESE 04:27:21 14° ESE 04:27:56 10° ESE
Cosmos 967 Rocket 4.4 04:24:15 74° N 04:24:49 83° ENE 04:31:17 10° SE
Cosmos 372 Rocket 4.4 04:33:38 51° NNE 04:34:28 58° ENE 04:39:27 10° SSE
Cosmos 2333 Rocket 4.3 04:33:56 10° N 04:38:16 22° NE 04:42:40 10° E
Cosmos 1606 Rocket 4.3 04:43:12 33° NNE 04:44:51 51° ENE 04:49:08 10° SSE
SL-8 R/B 4.5 04:50:28 39° S 04:50:28 39° S 04:54:08 10° SSE
Cosmos 2142 Rocket 4.3 04:47:06 30° NNW 04:50:22 73° W 04:56:31 10° S
Helios 1A Rocket 4.2 04:51:41 10° SE 04:54:37 29° ENE 04:55:47 23° NE
SL-4 R/B 3.9 05:03:15 14° NNE 05:03:15 14° NNE 05:04:16 10° NE
Cosmos 2322 Rocket 4.0 05:02:26 10° N 05:07:12 27° NE 05:11:57 10° ESE
Meteor 2-3 Rocket 3.9 05:03:27 10° S 05:09:10 73° E 05:14:52 10° NNE
Cosmos 1726 Rocket 3.6 05:08:07 18° N 05:11:18 72° E 05:15:30 10° SSE
Cosmos 489 Rocket 4.4 05:06:53 10° SSW 05:13:12 79° WNW 05:19:30 10° NNE
Nadezhda 4 Rocket 3.9 05:07:52 10° SSW 05:14:08 69° W 05:20:26 10° N
Cosmos 1428 Rocket 4.4 05:09:03 10° S 05:15:14 80° W 05:21:33 10° N
CZ-4 R/B 3.6 05:12:23 10° N 05:17:03 78° WNW 05:21:38 10° SSW
NOSS 2-1 (D) 3.3 05:17:47 51° NW 05:18:45 86° SW 05:23:42 10° SSE
SL-24 R/B - RUBIN 2 4.4 05:19:22 31° SW 05:19:22 31° SW 05:22:44 10° S
Cosmos 2237 4.1 05:15:45 22° NNW 05:19:32 87° WSW 05:25:13 10° SSE
Cosmos 841 Rocket 3.4 05:16:06 10° SSW 05:21:15 61° WNW 05:26:28 10° NNE
USA 59 Rocket -0.1 05:20:26 49° NW 05:21:25 74° SW 05:26:30 10° SSE
COSMOS 2406 3.1 05:16:07 10° SSW 05:21:47 77° WNW 05:27:29 10° NNE
CZ-3 R/B 4.2 05:14:25 18° WSW 05:22:33 25° SW 05:29:37 10° S
NOSS 2-1 (E) 3.3 05:25:12 39° NW 05:26:36 89° NE 05:31:32 10° SE
Cosmos 1933 3.6 05:27:10 41° WSW 05:27:10 41° WSW 05:30:23 10° SSW
NOSS 3-1 (C) 4.1 05:21:26 20° NW 05:27:05 90° ENE 05:36:09 10° SSE
Cosmos 1892 Rocket 3.4 05:23:52 10° S 05:28:13 83° W 05:32:37 10° N
Cosmos 2195 Rocket 4.4 05:22:19 10° S 05:28:34 79° W 05:34:55 10° N
ATLAS CENTAUR Rocket 4.4 05:27:46 10° SW 05:32:15 28° SSE 05:44:40 10° ESE
Cosmos 2082 Rocket 2.7 05:31:29 28° W 05:33:20 34° WNW 05:38:26 10° N
SL-16 R/B 2.5 05:28:40 11° NNW 05:34:07 70° ENE 05:39:45 10° SSE
IRS-1D 3.9 05:39:29 10° N 05:44:07 39° WNW 05:48:49 10° SW
COSMOS 2455 3.2 05:41:19 21° NW 05:44:59 45° WSW 05:50:37 10° S
Cosmos 1898 Rocket 4.0 05:42:42 21° NW 05:45:38 39° WSW 05:50:30 10° S
NOSS 2-1 (C) 3.7 05:44:49 28° WNW 05:46:36 50° WSW 05:51:30 10° SSE
Cosmos 405 Rocket 4.1 05:44:00 10° SSE 05:46:59 34° E 05:49:59 10° NNE
Meteor 2-20 4.4 05:41:07 10° NNW 05:47:14 74° W 05:53:16 10° S
COSMO-SKYMED 1 2.9 05:51:39 10° S 05:55:31 40° W 05:59:10 11° NNW
Cosmos-2242 2.9 05:51:26 10° N 05:55:41 84° W 05:59:52 10° S
Cosmos 1980 Rocket 3.6 05:56:02 16° W 05:56:26 16° W 05:59:44 10° SW
Cosmos 2278 3.7 05:51:32 10° NNW 05:57:14 89° WSW 06:02:53 10° SSE
Tiangong -0.6 05:59:42 16° WSW 06:01:28 26° SSW 06:04:13 10° SE
Cosmos 1484 Rocket 2.5 05:59:25 10° N 06:02:46 52° WNW 06:06:03 10° SSW
Cosmos 2058 Rocket 3.0 05:58:26 10° NNW 06:02:51 64° W 06:07:11 10° S
Meteor 2-2 Rocket 4.2 06:00:31 10° NNW 06:06:12 70° W 06:11:56 10° S
Okean 1 2.9 06:05:01 10° NNW 06:08:33 66° W 06:12:04 10° S
Meteor 2-20 Rocket 4.2 06:03:40 10° NNW 06:09:24 69° W 06:15:02 10° S
Cosmos 1937 Rocket 4.2 06:06:02 12° NW 06:10:10 32° W 06:14:39 10° SSW
ATLAS 2AS CENTAUR R/B 3.9 06:06:30 10° S 06:13:14 48° ESE 06:19:49 10° NE
CORIOLIS 4.5 06:08:19 10° NNE 06:13:42 73° ESE 06:19:05 10° S
SL-08 ROCKET BODY 4.4 06:08:45 10° S 06:14:36 86° E 06:20:28 10° N
ARIANE 5 R/B 3.5 06:09:55 10° NNE 06:15:02 53° E 06:20:07 10° S
Cosmos 2285 Rocket 4.3 06:08:56 10° NNW 06:15:20 74° ENE 06:21:44 10° SSE
IRIDIUM 104 4.3 06:11:17 10° S 06:16:29 80° W 06:21:44 10° N
Cosmos 2333 Rocket 2.3 06:17:20 10° NNW 06:23:04 65° WSW 06:28:43 10° S
Cosmos 1833 4.4 06:18:31 10° SSW 06:24:09 81° ESE 06:29:51 10° NNE
SAR-Lupe-4 3.9 06:21:38 10° NNE 06:25:11 69° ESE 06:28:43 10° S
IRIDIUM 114 4.3 06:20:29 10° SSW 06:25:39 65° W 06:30:51 10° N
SMAP 3.0 06:21:33 10° NNE 06:26:14 83° WNW 06:30:52 10° SSW
Helios 1A Rocket 4.2 06:25:20 10° SW 06:27:16 15° W 06:29:14 10° WNW
Cosmos 2360 Rocket 2.2 06:23:56 10° NNW 06:29:35 85° WSW 06:35:12 10° SSE
Landsat 7 3.8 06:27:30 10° NNE 06:32:11 89° W 06:36:50 10° SSW
Cosmos 1814 Rocket 4.1 06:27:19 10° SSW 06:32:27 59° WNW 06:37:41 10° NNE
SAR-Lupe-1 4.4 06:29:23 10° NNE 06:33:01 74° ESE 06:36:35 10° S
NOSS 3-1 (A) 4.2 06:26:15 10° NW 06:33:41 77° WSW 06:42:47 10° SSE
CBERS-1 4.3 06:30:00 10° N 06:34:50 46° WNW 06:39:40 10° SW
IRIDIUM 103 4.5 06:29:45 10° SSW 06:34:50 53° W 06:39:58 10° N
IGS 5A 4.1 06:32:05 10° N 06:35:37 30° WNW 06:39:08 10° SW
BREEZE-M DEB (TANK) 2.4 06:34:44 10° NW 06:36:29 44° NNE 06:39:19 10° ESE
USA 234 4.3 06:32:04 10° E 06:37:49 34° NNE 06:43:34 10° NW
Cosmos 1758 Rocket 3.7 06:34:27 10° SSW 06:38:48 53° W 06:43:07 10° N
Cosmos 1743 2.3 06:36:45 10° SSW 06:39:56 59° W 06:43:09 10° N
